Tracking 26922 objects as of 31-Jan-2023
HD Live streaming from Space Station
objects crossing your sky now

CZ-6A DEB

Track CZ-6A DEB now!
10-day predictions


NORAD ID: 54263
Int'l Code: 2022-151E
Perigee: 833.2 km
Apogee: 1,288.7 km
Inclination: 99.0 °
Period: 106.3 minutes
Semi major axis: 7431 km
RCS: Unknown
Launch date: November 11, 2022
Source: People's Republic of China (PRC)
Launch site: Taiyaun Space Center, China (TSC)

Note: This is SATELLITE DEBRIS
Your satellite tracking list
Your tracking list is empty




NASA's NSSDC Master Catalog

Two Line Element Set (TLE):
1 54263U 22151E   23031.47508177  .00000207  00000-0  26575-3 0  9996
2 54263  99.0278  35.5806 0306466 216.1628 141.8439 13.55037799 10870
Source of the keplerian elements: AFSPC